Back to catalog

ONEWEB-0333

AliveCommunicationsPO
NORAD 49199·PAYLOAD·🇬🇧 United Kingdom

Launched Sep 14, 2021 from Baikonur Cosmodrome

Loading…

Next Passes (next 24 hours)

TLE

FreshSource: CelesTrak SupGP

Epoch: Sep 14, 2026, 06:59 UTC

1 49199C 21083P   26257.29148565 -.00002613  00000+0 -71643-2 0  2571
2 49199  87.8922 302.5067 0001993  97.2701  14.0205 13.13474864    15

Track ONEWEB-0333 in real time with AllMySat

Download on the App Store